Tracking 19832 objects as of 24-Aug-2019
HD Live streaming from Space Station
objects crossing your sky now

COSMOS 2251 DEB

Track COSMOS 2251 DEB now!
10-day predictions


NORAD ID: 34620
Int'l Code: 1993-036WR
Perigee: 744.5 km
Apogee: 922.3 km
Inclination: 74.1 °
Period: 101.4 minutes
Semi major axis: 7204 km
RCS: 0.011 m2 (small)
Launch date: June 16, 1993
Source: Commonwealth of Independent States (former USSR) (CIS)
Launch site: PLESETSK MISSILE AND SPACE COMPLEX (PKMTR)

Note: This is SATELLITE DEBRIS
aabbcc
Your satellite tracking list
Your tracking list is empty




NASA's NSSDC Master Catalog

Two Line Element Set (TLE):
1 34620U 93036WR  19234.49090753 +.00000747 +00000-0 +33856-3 0  9998
2 34620 074.0671 065.4742 0123417 313.4849 045.6084 14.19737986539481
Source of the keplerian elements: AFSPC